DLH467 KSAN-EDDM

Flight info

Callsign DLH467
Flight time N/A
Altitude 36000
Route ZZOOO4 MTBAL DCT CADEZ DCT HAKMN/N0486F370 Q73 LAKRR DCT WINEN DCT DTA DCT BPI DCT ISN DCT KAIIN DCT 55N090W/N0493F390 DCT GOSEP DCT TUNNI DCT GRIBS/M085F390 DCT KETLA DCT 63N050W 63N040W 62N030W/M085F410 60N020W DCT GOMUP/N0493F410 DCT GINGA DCT EMGAT DCT ERKIT N110 DOLAS DCT NAVPI DCT SOGPO DCT DOJOH DCT DODEN/N0497F330 DCT TABUM DCT BOMBI T104 HAREM/N0481F270 T104 ROKIL ROKIL1A
Aircraft A359/H-SDE2E3GHIJ3J4J5LM1ORWXY/LB1D1

Departure

Time 2026-04-22 01:37
Airport San Diego International Airport (KSAN)

Arrival

Time N/A
Airport Munich Airport (EDDM)
Time Latitude Longitude Altitude Speed Heading
2026-04-22 00:41 32.73261 -117.20541 32 ft 0 kts 161°
2026-04-22 01:09 32.73270 -117.20545 31 ft 2 kts 161°
2026-04-22 01:09 32.73280 -117.20549 30 ft 2 kts 161°
2026-04-22 01:09 32.73291 -117.20553 31 ft 2 kts 150°
2026-04-22 01:09 32.73302 -117.20563 29 ft 2 kts 118°
2026-04-22 01:10 32.73307 -117.20575 30 ft 2 kts 114°
2026-04-22 01:10 32.73311 -117.20587 29 ft 2 kts 114°
2026-04-22 01:10 32.73316 -117.20598 28 ft 2 kts 114°
2026-04-22 01:10 32.73320 -117.20609 27 ft 0 kts 114°
2026-04-22 01:11 32.73322 -117.20614 26 ft 0 kts 114°
2026-04-22 01:21 32.73323 -117.20616 26 ft 2 kts 114°
2026-04-22 01:21 32.73321 -117.20612 27 ft 18 kts 114°
2026-04-22 01:22 32.73247 -117.20535 32 ft 0 kts 160°
2026-04-22 01:24 32.73254 -117.20538 32 ft 2 kts 160°
2026-04-22 01:24 32.73268 -117.20545 31 ft 2 kts 160°
2026-04-22 01:25 32.73283 -117.20551 30 ft 2 kts 158°
2026-04-22 01:25 32.73298 -117.20562 29 ft 3 kts 119°
2026-04-22 01:25 32.73304 -117.20583 28 ft 3 kts 81°
2026-04-22 01:25 32.73303 -117.20590 29 ft 3 kts 66°
2026-04-22 01:26 32.73293 -117.20608 29 ft 3 kts 28°
2026-04-22 01:26 32.73288 -117.20611 27 ft 0 kts 15°
2026-04-22 01:26 32.73291 -117.20610 28 ft 4 kts 16°
2026-04-22 01:26 32.73396 -117.20569 29 ft 21 kts 18°
2026-04-22 01:27 32.73525 -117.20490 29 ft 10 kts 43°
2026-04-22 01:27 32.73555 -117.20423 26 ft 9 kts 77°
2026-04-22 01:27 32.73552 -117.20360 27 ft 8 kts 99°
2026-04-22 01:27 32.73536 -117.20267 30 ft 16 kts 104°
2026-04-22 01:28 32.73509 -117.20104 32 ft 25 kts 96°
2026-04-22 01:28 32.73469 -117.19867 33 ft 34 kts 106°
2026-04-22 01:28 32.73410 -117.19624 33 ft 32 kts 105°
2026-04-22 01:28 32.73350 -117.19354 31 ft 36 kts 106°
2026-04-22 01:29 32.73277 -117.19052 32 ft 39 kts 106°
2026-04-22 01:29 32.73196 -117.18731 32 ft 42 kts 107°
2026-04-22 01:29 32.73107 -117.18385 32 ft 46 kts 107°
2026-04-22 01:29 32.73030 -117.18066 29 ft 21 kts 118°
2026-04-22 01:30 32.72929 -117.17958 29 ft 22 kts 143°
2026-04-22 01:30 32.72915 -117.17944 29 ft 0 kts 132°
2026-04-22 01:31 32.72915 -117.17943 29 ft 0 kts 132°
2026-04-22 01:32 32.72912 -117.17940 29 ft 7 kts 133°
2026-04-22 01:32 32.72892 -117.17913 29 ft 0 kts 132°
2026-04-22 01:32 32.72890 -117.17910 29 ft 3 kts 127°
2026-04-22 01:33 32.72889 -117.17882 28 ft 8 kts 89°
2026-04-22 01:33 32.72916 -117.17786 27 ft 17 kts 67°
2026-04-22 01:33 32.72943 -117.17706 29 ft 0 kts 68°
2026-04-22 01:35 32.72950 -117.17685 29 ft 11 kts 68°
2026-04-22 01:35 32.72955 -117.17670 29 ft 0 kts 69°
2026-04-22 01:36 32.72955 -117.17669 29 ft 2 kts 69°
2026-04-22 01:36 32.72977 -117.17629 31 ft 4 kts 53°
2026-04-22 01:36 32.72998 -117.17624 32 ft 10 kts 358°
2026-04-22 01:36 32.73057 -117.17760 30 ft 32 kts 285°
2026-04-22 01:37 32.73216 -117.18452 33 ft 146 kts 288°
2026-04-22 01:37 32.73597 -117.19987 307 ft 223 kts 285°
2026-04-22 01:37 32.73998 -117.21745 1091 ft 225 kts 283°
2026-04-22 01:37 32.74390 -117.23477 1832 ft 209 kts 284°
2026-04-22 01:38 32.74784 -117.25128 2151 ft 218 kts 285°
2026-04-22 01:38 32.75247 -117.26888 2503 ft 226 kts 287°
2026-04-22 01:38 32.75725 -117.28613 3240 ft 214 kts 287°
2026-04-22 01:38 32.76187 -117.30250 3955 ft 202 kts 287°
2026-04-22 01:39 32.76632 -117.31793 4655 ft 192 kts 287°
2026-04-22 01:39 32.77061 -117.33244 5385 ft 180 kts 286°
2026-04-22 01:39 32.77471 -117.34591 6082 ft 167 kts 286°
2026-04-22 01:39 32.77867 -117.35845 6706 ft 159 kts 285°
2026-04-22 01:40 32.78255 -117.37043 7194 ft 156 kts 285°
2026-04-22 01:40 32.78651 -117.38242 7743 ft 155 kts 286°
2026-04-22 01:40 32.79051 -117.39431 8014 ft 153 kts 285°
2026-04-22 01:40 32.79450 -117.40614 8019 ft 155 kts 285°
2026-04-22 01:41 32.79853 -117.41809 8018 ft 156 kts 285°
2026-04-22 01:41 32.80259 -117.43010 8014 ft 157 kts 286°